User: anonymous   Login
Location: Colonia Mina de C?rbuni
(46.1667°N, 22.7167°E)
Time: 15:35:41
(UTC+00:00)
Language:

Courier 1B - Orbit

View from above orbital plane
View from above orbital plane
View from above satellite
View from above satellite

Ground track
Ground track

The orbit data is extracted from the following two-line orbital elements,

1    58U 60013A   24104.49973240  .00000121  00000-0  56041-4 0  9996
2    58  28.3264 211.9478 0164847 107.5350 254.3278 13.46371731127426
Epoch (UTC): 13 April 2024 11:59:36
Eccentricity: 0.0164847
inclination: 28.3264°
perigee height: 962 km
apogee height: 1208 km
right ascension of ascending node: 211.9478°
argument of perigee: 107.5350°
revolutions per day: 13.46371731
mean anomaly at epoch: 254.3278°
orbit number at epoch: 12742

The dashed part of the orbit path shows where the satellite is in the earth's shadow,  

DLR